• In Belgien
  • Länderverzeichnis
  • Für 7 Tage
  • Wassertemperatur
  • Satellitenkarten
  • Wetterkarte
  • Widgets
  • user-avatar
    Anmelden

    Stündliche Wetter Brügge

    Heute, 21 November, Dienstag

    Zeit Temperatur Niederschläge Wind Luftdruck Luftfeuchtigkeit
    00:00 +11°C° 0,1 mm 6 m/S 759 mmHg 92%
    01:00 +11°C° 0,1 mm 7 m/S 759 mmHg 92%
    02:00 +11°C° 0,1 mm 7 m/S 758 mmHg 92%
    03:00 +11°C° 0,1 mm 7 m/S 758 mmHg 92%
    04:00 +11°C° 0,3 mm 7 m/S 758 mmHg 92%
    05:00 +12°C° 0,3 mm 8 m/S 758 mmHg 91%
    06:00 +12°C° 0,3 mm 8 m/S 758 mmHg 90%
    07:00 +12°C° 0,1 mm 8 m/S 758 mmHg 89%
    08:00 +12°C° 0,1 mm 8 m/S 758 mmHg 89%
    09:00 +12°C° 0,1 mm 8 m/S 758 mmHg 88%
    10:00 +12°C° 0 mm 8 m/S 758 mmHg 86%
    11:00 +12°C° 0 mm 8 m/S 758 mmHg 83%
    12:00 +12°C° 0 mm 8 m/S 758 mmHg 81%
    13:00 +11°C° 0 mm 8 m/S 758 mmHg 81%
    14:00 +11°C° 0 mm 8 m/S 758 mmHg 81%
    15:00 +11°C° 0 mm 8 m/S 757 mmHg 81%
    16:00 +11°C° 0 mm 8 m/S 757 mmHg 82%
    17:00 +11°C° 0 mm 8 m/S 757 mmHg 82%
    18:00 +10°C° 0 mm 8 m/S 757 mmHg 83%
    19:00 +10°C° 0 mm 8 m/S 757 mmHg 84%
    20:00 +10°C° 0 mm 8 m/S 756 mmHg 85%
    21:00 +10°C° 0 mm 8 m/S 756 mmHg 86%
    22:00 +10°C° 0 mm 8 m/S 756 mmHg 86%
    23:00 +10°C° 0 mm 8 m/S 755 mmHg 86%

    Morgen, 22 November, Mittwoch

    Zeit Temperatur Niederschläge Wind Luftdruck Luftfeuchtigkeit
    00:00 +11°C° 0 mm 8 m/S 755 mmHg 86%
    01:00 +11°C° 0 mm 8 m/S 755 mmHg 86%
    02:00 +11°C° 0 mm 8 m/S 755 mmHg 86%
    03:00 +11°C° 0 mm 9 m/S 754 mmHg 86%
    04:00 +10°C° 0 mm 8 m/S 754 mmHg 86%
    05:00 +10°C° 0 mm 8 m/S 754 mmHg 86%
    06:00 +10°C° 0 mm 8 m/S 754 mmHg 86%
    07:00 +10°C° 0 mm 9 m/S 754 mmHg 85%
    08:00 +8°C° 0 mm 9 m/S 754 mmHg 84%
    09:00 +8°C° 0 mm 9 m/S 754 mmHg 83%
    10:00 +10°C° 0 mm 9 m/S 753 mmHg 77%
    11:00 +11°C° 0 mm 9 m/S 753 mmHg 71%
    12:00 +12°C° 0 mm 9 m/S 752 mmHg 65%
    13:00 +12°C° 0 mm 9 m/S 752 mmHg 62%
    14:00 +11°C° 0 mm 9 m/S 751 mmHg 59%
    15:00 +11°C° 0 mm 9 m/S 750 mmHg 57%
    16:00 +11°C° 0 mm 10 m/S 750 mmHg 56%
    17:00 +9°C° 0 mm 10 m/S 750 mmHg 55%
    18:00 +9°C° 0 mm 11 m/S 749 mmHg 54%
    19:00 +9°C° 0 mm 11 m/S 749 mmHg 53%
    20:00 +11°C° 0 mm 11 m/S 749 mmHg 52%
    21:00 +11°C° 0 mm 11 m/S 749 mmHg 50%
    22:00 +11°C° 0,1 mm 11 m/S 748 mmHg 52%
    23:00 +10°C° 0,1 mm 12 m/S 748 mmHg 54%

    übermorgen, 23 November, Donnerstag

    Zeit Temperatur Niederschläge Wind Luftdruck Luftfeuchtigkeit
    00:00 +10°C° 0,1 mm 12 m/S 747 mmHg 55%
    01:00 +12°C° 0,1 mm 12 m/S 747 mmHg 57%
    02:00 +12°C° 0,1 mm 13 m/S 747 mmHg 58%
    03:00 +12°C° 0,1 mm 14 m/S 746 mmHg 60%
    04:00 +13°C° 0,2 mm 13 m/S 747 mmHg 64%
    05:00 +13°C° 0,2 mm 12 m/S 748 mmHg 68%
    06:00 +13°C° 0,2 mm 12 m/S 748 mmHg 72%
    07:00 +13°C° 0 mm 11 m/S 749 mmHg 74%
    08:00 +13°C° 0 mm 11 m/S 750 mmHg 75%
    09:00 +13°C° 0 mm 11 m/S 751 mmHg 77%
    10:00 +13°C° 0,1 mm 11 m/S 751 mmHg 76%
    11:00 +13°C° 0,1 mm 10 m/S 752 mmHg 74%
    12:00 +14°C° 0,1 mm 10 m/S 752 mmHg 73%
    13:00 +14°C° 0 mm 10 m/S 752 mmHg 73%
    14:00 +15°C° 0 mm 9 m/S 753 mmHg 73%
    15:00 +15°C° 0 mm 8 m/S 753 mmHg 73%
    16:00 +13°C° 0,1 mm 8 m/S 753 mmHg 75%
    17:00 +13°C° 0,1 mm 8 m/S 754 mmHg 77%
    18:00 +12°C° 0,1 mm 7 m/S 754 mmHg 79%
    19:00 +12°C° 0 mm 8 m/S 754 mmHg 81%
    20:00 +12°C° 0 mm 9 m/S 754 mmHg 82%
    21:00 +12°C° 0 mm 9 m/S 755 mmHg 84%
    22:00 +13°C° 0,3 mm 9 m/S 755 mmHg 84%
    23:00 +13°C° 0,3 mm 9 m/S 755 mmHg 84%

    24 November, Freitag

    Zeit Temperatur Niederschläge Wind Luftdruck Luftfeuchtigkeit
    00:00 +13°C° 0,3 mm 9 m/S 755 mmHg 84%
    01:00 +12°C° 0,6 mm 9 m/S 755 mmHg 81%
    02:00 +12°C° 0,6 mm 9 m/S 755 mmHg 78%
    03:00 +12°C° 0,6 mm 9 m/S 755 mmHg 76%
    04:00 +12°C° 1,8 mm 8 m/S 754 mmHg 77%
    05:00 +12°C° 1,8 mm 7 m/S 754 mmHg 78%
    06:00 +13°C° 1,8 mm 6 m/S 754 mmHg 78%
    07:00 +12°C° 1,2 mm 7 m/S 754 mmHg 79%
    08:00 +12°C° 1,2 mm 8 m/S 754 mmHg 79%
    09:00 +12°C° 1,2 mm 9 m/S 754 mmHg 79%
    10:00 +12°C° 0,8 mm 9 m/S 754 mmHg 80%
    11:00 +12°C° 0,8 mm 10 m/S 754 mmHg 80%
    12:00 +13°C° 0,8 mm 10 m/S 754 mmHg 80%
    13:00 +13°C° 0,3 mm 10 m/S 753 mmHg 80%
    14:00 +12°C° 0,3 mm 9 m/S 753 mmHg 81%
    15:00 +12°C° 0,3 mm 9 m/S 753 mmHg 81%
    16:00 +12°C° 0,9 mm 9 m/S 753 mmHg 81%
    17:00 +12°C° 0,9 mm 9 m/S 753 mmHg 80%
    18:00 +12°C° 0,9 mm 9 m/S 753 mmHg 80%
    19:00 +12°C° 0,9 mm 9 m/S 753 mmHg 79%
    20:00 +12°C° 0,9 mm 9 m/S 753 mmHg 78%
    21:00 +12°C° 0,9 mm 9 m/S 753 mmHg 77%
    22:00 +12°C° 0,5 mm 9 m/S 753 mmHg 78%
    23:00 +12°C° 0,5 mm 9 m/S 753 mmHg 79%

    25 November, Samstag

    Zeit Temperatur Niederschläge Wind Luftdruck Luftfeuchtigkeit
    00:00 +12°C° 0,5 mm 9 m/S 753 mmHg 80%
    01:00 +12°C° 0,6 mm 9 m/S 752 mmHg 80%
    02:00 +12°C° 0,6 mm 9 m/S 752 mmHg 80%
    03:00 +11°C° 0,6 mm 9 m/S 751 mmHg 80%
    04:00 +11°C° 1,1 mm 9 m/S 751 mmHg 80%
    05:00 +11°C° 1,1 mm 9 m/S 750 mmHg 81%
    06:00 +11°C° 1,1 mm 10 m/S 750 mmHg 81%
    07:00 +11°C° 1,1 mm 9 m/S 749 mmHg 83%
    08:00 +11°C° 1,1 mm 9 m/S 749 mmHg 84%
    09:00 +10°C° 1,1 mm 9 m/S 749 mmHg 86%
    10:00 +9°C° 0,3 mm 10 m/S 750 mmHg 80%
    11:00 +9°C° 0,3 mm 12 m/S 751 mmHg 75%
    12:00 +9°C° 0,3 mm 13 m/S 751 mmHg 69%
    13:00 +8°C° 0,1 mm 13 m/S 752 mmHg 69%
    14:00 +6°C° 0,1 mm 14 m/S 753 mmHg 68%
    15:00 +5°C° 0,1 mm 14 m/S 754 mmHg 68%
    16:00 +4°C° 0,6 mm 13 m/S 756 mmHg 68%
    17:00 +4°C° 0,6 mm 12 m/S 757 mmHg 68%
    18:00 +4°C° 0,6 mm 11 m/S 759 mmHg 67%
    19:00 +3°C° 0,1 mm 10 m/S 760 mmHg 68%
    20:00 +3°C° 0,1 mm 9 m/S 762 mmHg 68%
    21:00 +3°C° 0,1 mm 9 m/S 763 mmHg 68%
    22:00 +2°C° 0,1 mm 8 m/S 764 mmHg 67%
    23:00 +2°C° 0,1 mm 8 m/S 764 mmHg 67%

    26 November, Sonntag

    Zeit Temperatur Niederschläge Wind Luftdruck Luftfeuchtigkeit
    00:00 +2°C° 0,1 mm 8 m/S 765 mmHg 66%
    01:00 +2°C° 0,1 mm 8 m/S 765 mmHg 66%
    02:00 +1°C° 0,1 mm 8 m/S 765 mmHg 66%
    03:00 +1°C° 0,1 mm 8 m/S 766 mmHg 65%
    04:00 +1°C° 0,1 mm 8 m/S 766 mmHg 67%
    05:00 +1°C° 0,1 mm 8 m/S 766 mmHg 68%
    06:00 +1°C° 0,1 mm 8 m/S 766 mmHg 69%
    07:00 +1°C° 0,2 mm 8 m/S 767 mmHg 68%
    08:00 +3°C° 0,2 mm 7 m/S 767 mmHg 68%
    09:00 +3°C° 0,2 mm 7 m/S 768 mmHg 68%
    10:00 +4°C° 0,1 mm 7 m/S 768 mmHg 64%
    11:00 +5°C° 0,1 mm 8 m/S 768 mmHg 61%
    12:00 +5°C° 0,1 mm 8 m/S 768 mmHg 57%
    13:00 +5°C° 0,1 mm 7 m/S 768 mmHg 59%
    14:00 +5°C° 0,1 mm 7 m/S 768 mmHg 61%
    15:00 +4°C° 0,1 mm 7 m/S 769 mmHg 63%
    16:00 +4°C° 0 mm 6 m/S 769 mmHg 65%
    17:00 +3°C° 0 mm 6 m/S 769 mmHg 67%
    18:00 +2°C° 0 mm 6 m/S 770 mmHg 69%
    19:00 +2°C° 0 mm 6 m/S 770 mmHg 70%
    20:00 +2°C° 0 mm 6 m/S 770 mmHg 71%
    21:00 +2°C° 0 mm 6 m/S 770 mmHg 72%
    22:00 +2°C° 0,1 mm 6 m/S 770 mmHg 72%
    23:00 +2°C° 0,1 mm 6 m/S 770 mmHg 73%
    Mehr zeigen